Location: Flotzheim
(48.8375°N, 10.8136°E)
Time: 04:53:26
(UTC+00:00)

Cosmos 2263 Rocket - Pass Details

Date: 23 January 2021
Orbit: 825 x 847 km, 71.0° (Epoch: 26 February)

Event Time Altitude Azimuth Distance (km) Brightness Sun altitude
Rises 16:24:04 0° 213° (SSW) 3,396 6.5 -4.3°
Reaches altitude 10° 16:26:32 10° 215° (SW) 2,463 5.7 -4.7°
Maximum altitude 16:32:11 72° 300° (WNW) 890 2.5 -5.6°
Drops below altitude 10° 16:37:51 10° 25° (NNE) 2,468 4.2 -6.4°
Sets 16:40:19 0° 28° (NNE) 3,403 4.9 -6.8°
